Location: Marsån
(66.4167°N, 22.2833°E)
Time: 11:38:28
(UTC+00:00)

NOSS 3-4 (A) - Pass Details

Date: 24 February 2024
Orbit: 810 x 1402 km, 63.4° (Epoch: 05 March)

Event Time Altitude Azimuth Distance (km) Brightness Sun altitude
Rises 17:15:25 0° 281° (W) 3,533 8.5 -11.8°
Reaches altitude 10° 17:17:49 10° 277° (W) 2,655 7.3 -12.0°
Maximum altitude 17:23:55 60° 200° (SSW) 1,172 4.0 -12.6°
Enters shadow 17:30:14 13° 124° (ESE) 2,794 5.3 -13.3°
